Year,Month,Day,Hour,Minute,Value (Times are PST for temperature in C)
2017,08,11,00,00,19.20
2017,08,11,00,01,19.20
2017,08,11,00,02,19.20
2017,08,11,00,03,19.10
2017,08,11,00,04,19.10
2017,08,11,00,05,19.10
2017,08,11,00,06,19.10
2017,08,11,00,07,19.10
2017,08,11,00,08,19.10
2017,08,11,00,09,19.10
2017,08,11,00,10,19.10
2017,08,11,00,11,19.10
2017,08,11,00,12,19.10
2017,08,11,00,13,19.10
2017,08,11,00,14,19.10
2017,08,11,00,15,19.00
2017,08,11,00,16,19.00
2017,08,11,00,17,19.00
2017,08,11,00,18,19.00
2017,08,11,00,19,19.00
2017,08,11,00,20,19.00
2017,08,11,00,21,19.00
2017,08,11,00,22,19.00
2017,08,11,00,23,19.00
2017,08,11,00,24,19.00
2017,08,11,00,25,19.00
2017,08,11,00,26,19.00
2017,08,11,00,27,19.00
2017,08,11,00,28,19.00
2017,08,11,00,29,18.90
2017,08,11,00,30,18.90
2017,08,11,00,31,18.90
2017,08,11,00,32,18.90
2017,08,11,00,33,18.90
2017,08,11,00,34,18.90
2017,08,11,00,35,18.90
2017,08,11,00,36,18.90
2017,08,11,00,37,18.90
2017,08,11,00,38,18.90
2017,08,11,00,39,18.90
2017,08,11,00,40,18.90
2017,08,11,00,41,18.90
2017,08,11,00,42,18.90
2017,08,11,00,43,18.90
2017,08,11,00,44,18.90
2017,08,11,00,45,18.90
2017,08,11,00,46,18.90
2017,08,11,00,47,18.80
2017,08,11,00,48,18.80
2017,08,11,00,49,18.80
2017,08,11,00,50,18.80
2017,08,11,00,51,18.80
2017,08,11,00,52,18.80
2017,08,11,00,53,18.70
2017,08,11,00,54,18.70
2017,08,11,00,55,18.70
2017,08,11,00,56,18.70
2017,08,11,00,57,18.70
2017,08,11,00,58,18.70
2017,08,11,00,59,18.60
2017,08,11,01,00,18.60
2017,08,11,01,01,18.60
2017,08,11,01,02,18.60
2017,08,11,01,03,18.50
2017,08,11,01,04,18.50
2017,08,11,01,05,18.40
2017,08,11,01,06,18.40
2017,08,11,01,07,18.40
2017,08,11,01,08,18.40
2017,08,11,01,09,18.30
2017,08,11,01,10,18.30
2017,08,11,01,11,18.30
2017,08,11,01,12,18.30
2017,08,11,01,13,18.30
2017,08,11,01,14,18.30
2017,08,11,01,15,18.30
2017,08,11,01,16,18.30
2017,08,11,01,17,18.20
2017,08,11,01,18,18.20
2017,08,11,01,19,18.20
2017,08,11,01,20,18.20
2017,08,11,01,21,18.10
2017,08,11,01,22,18.10
2017,08,11,01,23,18.10
2017,08,11,01,24,18.10
2017,08,11,01,25,18.10
2017,08,11,01,26,18.10
2017,08,11,01,27,18.00
2017,08,11,01,28,18.00
2017,08,11,01,29,18.00
2017,08,11,01,30,17.90
2017,08,11,01,31,17.90
2017,08,11,01,32,17.90
2017,08,11,01,33,17.90
2017,08,11,01,34,17.80
2017,08,11,01,35,17.80
2017,08,11,01,36,17.80
2017,08,11,01,37,17.80
2017,08,11,01,38,17.70
2017,08,11,01,39,17.70
2017,08,11,01,40,17.70
2017,08,11,01,41,17.70
2017,08,11,01,42,17.70
2017,08,11,01,43,17.60
2017,08,11,01,44,17.60
2017,08,11,01,45,17.60
2017,08,11,01,46,17.60
2017,08,11,01,47,17.60
2017,08,11,01,48,17.60
2017,08,11,01,49,17.60
2017,08,11,01,50,17.50
2017,08,11,01,51,17.50
2017,08,11,01,52,17.50
2017,08,11,01,53,17.50
2017,08,11,01,54,17.40
2017,08,11,01,55,17.40
2017,08,11,01,56,17.40
2017,08,11,01,57,17.40
2017,08,11,01,58,17.40
2017,08,11,01,59,17.40
2017,08,11,02,00,17.40
2017,08,11,02,01,17.40
2017,08,11,02,02,17.40
2017,08,11,02,03,17.40
2017,08,11,02,04,17.40
2017,08,11,02,05,17.30
2017,08,11,02,06,17.30
2017,08,11,02,07,17.30
2017,08,11,02,08,17.30
2017,08,11,02,09,17.30
2017,08,11,02,10,17.30
2017,08,11,02,11,17.30
2017,08,11,02,12,17.30
2017,08,11,02,13,17.20
2017,08,11,02,14,17.20
2017,08,11,02,15,17.20
2017,08,11,02,16,17.20
2017,08,11,02,17,17.20
2017,08,11,02,18,17.20
2017,08,11,02,19,17.20
2017,08,11,02,20,17.20
2017,08,11,02,21,17.20
2017,08,11,02,22,17.20
2017,08,11,02,23,17.20
2017,08,11,02,24,17.20
2017,08,11,02,25,17.20
2017,08,11,02,26,17.20
2017,08,11,02,27,17.20
2017,08,11,02,28,17.20
2017,08,11,02,29,17.20
2017,08,11,02,30,17.20
2017,08,11,02,31,17.20
2017,08,11,02,32,17.20
2017,08,11,02,33,17.20
2017,08,11,02,34,17.10
2017,08,11,02,35,17.10
2017,08,11,02,36,17.10
2017,08,11,02,37,17.10
2017,08,11,02,38,17.10
2017,08,11,02,39,17.10
2017,08,11,02,40,17.10
2017,08,11,02,41,17.10
2017,08,11,02,42,17.10
2017,08,11,02,43,17.00
2017,08,11,02,44,17.00
2017,08,11,02,45,17.00
2017,08,11,02,46,17.00
2017,08,11,02,47,17.00
2017,08,11,02,48,17.00
2017,08,11,02,49,16.90
2017,08,11,02,50,16.90
2017,08,11,02,51,16.90
2017,08,11,02,52,16.90
2017,08,11,02,53,16.90
2017,08,11,02,54,16.90
2017,08,11,02,55,16.90
2017,08,11,02,56,16.90
2017,08,11,02,57,16.90
2017,08,11,02,58,16.90
2017,08,11,02,59,16.90
2017,08,11,03,00,16.90
2017,08,11,03,01,16.90
2017,08,11,03,02,16.90
2017,08,11,03,03,16.90
2017,08,11,03,04,16.90
2017,08,11,03,05,16.90
2017,08,11,03,06,16.90
2017,08,11,03,07,16.80
2017,08,11,03,08,16.80
2017,08,11,03,09,16.80
2017,08,11,03,10,16.80
2017,08,11,03,11,16.80
2017,08,11,03,12,16.80
2017,08,11,03,13,16.70
2017,08,11,03,14,16.70
2017,08,11,03,15,16.70
2017,08,11,03,16,16.70
2017,08,11,03,17,16.70
2017,08,11,03,18,16.60
2017,08,11,03,19,16.60
2017,08,11,03,20,16.60
2017,08,11,03,21,16.60
2017,08,11,03,22,16.60
2017,08,11,03,23,16.60
2017,08,11,03,24,16.60
2017,08,11,03,25,16.60
2017,08,11,03,26,16.60
2017,08,11,03,27,16.60
2017,08,11,03,28,16.60
2017,08,11,03,29,16.60
2017,08,11,03,30,16.50
2017,08,11,03,31,16.50
2017,08,11,03,32,16.50
2017,08,11,03,33,16.40
2017,08,11,03,34,16.40
2017,08,11,03,35,16.40
2017,08,11,03,36,16.40
2017,08,11,03,37,16.40
2017,08,11,03,38,16.40
2017,08,11,03,39,16.40
2017,08,11,03,40,16.40
2017,08,11,03,41,16.30
2017,08,11,03,42,16.30
2017,08,11,03,43,16.30
2017,08,11,03,44,16.30
2017,08,11,03,45,16.30
2017,08,11,03,46,16.30
2017,08,11,03,47,16.30
2017,08,11,03,48,16.30
2017,08,11,03,49,16.30
2017,08,11,03,50,16.20
2017,08,11,03,51,16.20
2017,08,11,03,52,16.20
2017,08,11,03,53,16.20
2017,08,11,03,54,16.20
2017,08,11,03,55,16.20
2017,08,11,03,56,16.20
2017,08,11,03,57,16.20
2017,08,11,03,58,16.10
2017,08,11,03,59,16.10
2017,08,11,04,00,16.10
2017,08,11,04,01,16.10
2017,08,11,04,02,16.10
2017,08,11,04,03,16.10
2017,08,11,04,04,16.00
2017,08,11,04,05,16.00
2017,08,11,04,06,16.00
2017,08,11,04,07,16.00
2017,08,11,04,08,16.00
2017,08,11,04,09,15.90
2017,08,11,04,10,15.90
2017,08,11,04,11,15.90
2017,08,11,04,12,15.90
2017,08,11,04,13,15.90
2017,08,11,04,14,15.90
2017,08,11,04,15,15.90
2017,08,11,04,16,15.90
2017,08,11,04,17,15.90
2017,08,11,04,18,15.90
2017,08,11,04,19,15.90
2017,08,11,04,20,15.90
2017,08,11,04,21,15.90
2017,08,11,04,22,15.90
2017,08,11,04,23,15.80
2017,08,11,04,24,15.80
2017,08,11,04,25,15.80
2017,08,11,04,26,15.80
2017,08,11,04,27,15.80
2017,08,11,04,28,15.80
2017,08,11,04,29,15.80
2017,08,11,04,30,15.80
2017,08,11,04,31,15.70
2017,08,11,04,32,15.70
2017,08,11,04,33,15.70
2017,08,11,04,34,15.70
2017,08,11,04,35,15.70
2017,08,11,04,36,15.70
2017,08,11,04,37,15.70
2017,08,11,04,38,15.70
2017,08,11,04,39,15.70
2017,08,11,04,40,15.70
2017,08,11,04,41,15.70
2017,08,11,04,42,15.70
2017,08,11,04,43,15.70
2017,08,11,04,44,15.70
2017,08,11,04,45,15.70
2017,08,11,04,46,15.70
2017,08,11,04,47,15.70
2017,08,11,04,48,15.70
2017,08,11,04,49,15.60
2017,08,11,04,50,15.60
2017,08,11,04,51,15.60
2017,08,11,04,52,15.60
2017,08,11,04,53,15.60
2017,08,11,04,54,15.60
2017,08,11,04,55,15.60
2017,08,11,04,56,15.60
2017,08,11,04,57,15.60
2017,08,11,04,58,15.60
2017,08,11,04,59,15.60
2017,08,11,05,00,15.60
2017,08,11,05,01,15.50
2017,08,11,05,02,15.50
2017,08,11,05,03,15.50
2017,08,11,05,04,15.50
2017,08,11,05,05,15.50
2017,08,11,05,06,15.50
2017,08,11,05,07,15.50
2017,08,11,05,08,15.40
2017,08,11,05,09,15.40
2017,08,11,05,10,15.40
2017,08,11,05,11,15.40
2017,08,11,05,12,15.40
2017,08,11,05,13,15.40
2017,08,11,05,14,15.40
2017,08,11,05,15,15.40
2017,08,11,05,16,15.40
2017,08,11,05,17,15.40
2017,08,11,05,18,15.40
2017,08,11,05,19,15.40
2017,08,11,05,20,15.40
2017,08,11,05,21,15.40
2017,08,11,05,22,15.40
2017,08,11,05,23,15.40
2017,08,11,05,24,15.30
2017,08,11,05,25,15.30
2017,08,11,05,26,15.30
2017,08,11,05,27,15.30
2017,08,11,05,28,15.30
2017,08,11,05,29,15.30
2017,08,11,05,30,15.30
2017,08,11,05,31,15.30
2017,08,11,05,32,15.30
2017,08,11,05,33,15.30
2017,08,11,05,34,15.30
2017,08,11,05,35,15.30
2017,08,11,05,36,15.30
2017,08,11,05,37,15.30
2017,08,11,05,38,15.30
2017,08,11,05,39,15.30
2017,08,11,05,40,15.20
2017,08,11,05,41,15.20
2017,08,11,05,42,15.20
2017,08,11,05,43,15.20
2017,08,11,05,44,15.20
2017,08,11,05,45,15.20
2017,08,11,05,46,15.20
2017,08,11,05,47,15.20
2017,08,11,05,48,15.20
2017,08,11,05,49,15.20
2017,08,11,05,50,15.20
2017,08,11,05,51,15.20
2017,08,11,05,52,15.20
2017,08,11,05,53,15.10
2017,08,11,05,54,15.10
2017,08,11,05,55,15.10
2017,08,11,05,56,15.10
2017,08,11,05,57,15.10
2017,08,11,05,58,15.10
2017,08,11,05,59,15.00
2017,08,11,06,00,15.00
2017,08,11,06,01,15.00
2017,08,11,06,02,15.00
2017,08,11,06,03,15.00
2017,08,11,06,04,15.00
2017,08,11,06,05,15.00
2017,08,11,06,06,15.00
2017,08,11,06,07,15.00
2017,08,11,06,08,15.00
2017,08,11,06,09,15.00
2017,08,11,06,10,15.00
2017,08,11,06,11,15.00
2017,08,11,06,12,15.00
2017,08,11,06,13,15.00
2017,08,11,06,14,15.00
2017,08,11,06,15,15.00
2017,08,11,06,16,15.00
2017,08,11,06,17,15.00
2017,08,11,06,18,15.00
2017,08,11,06,19,15.00
2017,08,11,06,20,15.00
2017,08,11,06,21,15.00
2017,08,11,06,22,15.00
2017,08,11,06,23,15.00
2017,08,11,06,24,15.00
2017,08,11,06,25,15.00
2017,08,11,06,26,15.00
2017,08,11,06,27,15.00
2017,08,11,06,28,15.00
2017,08,11,06,29,15.00
2017,08,11,06,30,15.00
2017,08,11,06,31,15.00
2017,08,11,06,32,15.00
2017,08,11,06,33,15.00
2017,08,11,06,34,15.00
2017,08,11,06,35,15.00
2017,08,11,06,36,15.10
2017,08,11,06,37,15.10
2017,08,11,06,38,15.10
2017,08,11,06,39,15.10
2017,08,11,06,40,15.10
2017,08,11,06,41,15.10
2017,08,11,06,42,15.10
2017,08,11,06,43,15.10
2017,08,11,06,44,15.20
2017,08,11,06,45,15.20
2017,08,11,06,46,15.20
2017,08,11,06,47,15.20
2017,08,11,06,48,15.20
2017,08,11,06,49,15.20
2017,08,11,06,50,15.20
2017,08,11,06,51,15.20
2017,08,11,06,52,15.30
2017,08,11,06,53,15.30
2017,08,11,06,54,15.30
2017,08,11,06,55,15.30
2017,08,11,06,56,15.30
2017,08,11,06,57,15.40
2017,08,11,06,58,15.40
2017,08,11,06,59,15.40
2017,08,11,07,00,15.50
2017,08,11,07,01,15.50
2017,08,11,07,02,15.50
2017,08,11,07,03,15.60
2017,08,11,07,04,15.60
2017,08,11,07,05,15.60
2017,08,11,07,06,15.60
2017,08,11,07,07,15.70
2017,08,11,07,08,15.70
2017,08,11,07,09,15.70
2017,08,11,07,10,15.70
2017,08,11,07,11,15.70
2017,08,11,07,12,15.80
2017,08,11,07,13,15.80
2017,08,11,07,14,15.80
2017,08,11,07,15,15.90
2017,08,11,07,16,15.90
2017,08,11,07,17,16.00
2017,08,11,07,18,16.00
2017,08,11,07,19,16.10
2017,08,11,07,20,16.10
2017,08,11,07,21,16.20
2017,08,11,07,22,16.20
2017,08,11,07,23,16.30
2017,08,11,07,24,16.30
2017,08,11,07,25,16.30
2017,08,11,07,26,16.40
2017,08,11,07,27,16.40
2017,08,11,07,28,16.50
2017,08,11,07,29,16.60
2017,08,11,07,30,16.60
2017,08,11,07,31,16.70
2017,08,11,07,32,16.80
2017,08,11,07,33,16.80
2017,08,11,07,34,16.80
2017,08,11,07,35,16.90
2017,08,11,07,36,16.90
2017,08,11,07,37,17.00
2017,08,11,07,38,17.00
2017,08,11,07,39,17.10
2017,08,11,07,40,17.10
2017,08,11,07,41,17.20
2017,08,11,07,42,17.20
2017,08,11,07,43,17.30
2017,08,11,07,44,17.30
2017,08,11,07,45,17.30
2017,08,11,07,46,17.40
2017,08,11,07,47,17.40
2017,08,11,07,48,17.40
2017,08,11,07,49,17.40
2017,08,11,07,50,17.40
2017,08,11,07,51,17.40
2017,08,11,07,52,17.50
2017,08,11,07,53,17.50
2017,08,11,07,54,17.50
2017,08,11,07,55,17.60
2017,08,11,07,56,17.60
2017,08,11,07,57,17.60
2017,08,11,07,58,17.60
2017,08,11,07,59,17.70
2017,08,11,08,00,17.70
2017,08,11,08,01,17.80
2017,08,11,08,02,17.80
2017,08,11,08,03,17.90
2017,08,11,08,04,17.90
2017,08,11,08,05,18.00
2017,08,11,08,06,18.00
2017,08,11,08,07,18.10
2017,08,11,08,08,18.10
2017,08,11,08,09,18.20
2017,08,11,08,10,18.30
2017,08,11,08,11,18.30
2017,08,11,08,12,18.30
2017,08,11,08,13,18.40
2017,08,11,08,14,18.40
2017,08,11,08,15,18.50
2017,08,11,08,16,18.50
2017,08,11,08,17,18.60
2017,08,11,08,18,18.60
2017,08,11,08,19,18.60
2017,08,11,08,20,18.70
2017,08,11,08,21,18.70
2017,08,11,08,22,18.80
2017,08,11,08,23,18.80
2017,08,11,08,24,18.80
2017,08,11,08,25,18.90
2017,08,11,08,26,19.00
2017,08,11,08,27,19.10
2017,08,11,08,28,19.10
2017,08,11,08,29,19.20
2017,08,11,08,30,19.30
2017,08,11,08,31,19.40
2017,08,11,08,32,19.50
2017,08,11,08,33,19.50
2017,08,11,08,34,19.60
2017,08,11,08,35,19.70
2017,08,11,08,36,19.80
2017,08,11,08,37,19.90
2017,08,11,08,38,20.00
2017,08,11,08,39,20.10
2017,08,11,08,40,20.20
2017,08,11,08,41,20.20
2017,08,11,08,42,20.30
2017,08,11,08,43,20.30
2017,08,11,08,44,20.20
2017,08,11,08,45,20.20
2017,08,11,08,46,20.30
2017,08,11,08,47,20.30
2017,08,11,08,48,20.30
2017,08,11,08,49,20.30
2017,08,11,08,50,20.40
2017,08,11,08,51,20.50
2017,08,11,08,52,20.50
2017,08,11,08,53,20.60
2017,08,11,08,54,20.60
2017,08,11,08,55,20.70
2017,08,11,08,56,20.70
2017,08,11,08,57,20.80
2017,08,11,08,58,20.80
2017,08,11,08,59,20.90
2017,08,11,09,00,20.90
2017,08,11,09,01,21.00
2017,08,11,09,02,21.00
2017,08,11,09,03,21.00
2017,08,11,09,04,21.10
2017,08,11,09,05,21.10
2017,08,11,09,06,21.10
2017,08,11,09,07,21.10
2017,08,11,09,08,21.10
2017,08,11,09,09,21.10
2017,08,11,09,10,21.00
2017,08,11,09,11,21.00
2017,08,11,09,12,21.00
2017,08,11,09,13,21.10
2017,08,11,09,14,21.10
2017,08,11,09,15,21.20
2017,08,11,09,16,21.30
2017,08,11,09,17,21.30
2017,08,11,09,18,21.30
2017,08,11,09,19,21.30
2017,08,11,09,20,21.30
2017,08,11,09,21,21.30
2017,08,11,09,22,21.30
2017,08,11,09,23,21.40
2017,08,11,09,24,21.40
2017,08,11,09,25,21.40
2017,08,11,09,26,21.40
2017,08,11,09,27,21.50
2017,08,11,09,28,21.50
2017,08,11,09,29,21.60
2017,08,11,09,30,21.70
2017,08,11,09,31,21.70
2017,08,11,09,32,21.80
2017,08,11,09,33,21.80
2017,08,11,09,34,21.90
2017,08,11,09,35,22.00
2017,08,11,09,36,22.00
2017,08,11,09,37,22.10
2017,08,11,09,38,22.20
2017,08,11,09,39,22.20
2017,08,11,09,40,22.20
2017,08,11,09,41,22.20
2017,08,11,09,42,22.30
2017,08,11,09,43,22.30
2017,08,11,09,44,22.30
2017,08,11,09,45,22.30
2017,08,11,09,46,22.30
2017,08,11,09,47,22.30
2017,08,11,09,48,22.40
2017,08,11,09,49,22.40
2017,08,11,09,50,22.40
2017,08,11,09,51,22.40
2017,08,11,09,52,22.40
2017,08,11,09,53,22.50
2017,08,11,09,54,22.50
2017,08,11,09,55,22.50
2017,08,11,09,56,22.60
2017,08,11,09,57,22.60
2017,08,11,09,58,22.70
2017,08,11,09,59,22.70
2017,08,11,10,00,22.80
2017,08,11,10,01,22.90
2017,08,11,10,02,22.90
2017,08,11,10,03,23.00
2017,08,11,10,04,23.00
2017,08,11,10,05,23.00
2017,08,11,10,06,23.00
2017,08,11,10,07,23.00
2017,08,11,10,08,23.00
2017,08,11,10,09,22.90
2017,08,11,10,10,22.90
2017,08,11,10,11,22.90
2017,08,11,10,12,22.80
2017,08,11,10,13,22.80
2017,08,11,10,14,22.80
2017,08,11,10,15,22.90
2017,08,11,10,16,22.90
2017,08,11,10,17,22.90
2017,08,11,10,18,22.90
2017,08,11,10,19,22.90
2017,08,11,10,20,22.80
2017,08,11,10,21,22.80
2017,08,11,10,22,22.80
2017,08,11,10,23,22.80
2017,08,11,10,24,22.90
2017,08,11,10,25,22.80
2017,08,11,10,26,22.90
2017,08,11,10,27,22.90
2017,08,11,10,28,22.90
2017,08,11,10,29,23.00
2017,08,11,10,30,23.00
2017,08,11,10,31,23.10
2017,08,11,10,32,23.10
2017,08,11,10,33,23.10
2017,08,11,10,34,23.10
2017,08,11,10,35,23.20
2017,08,11,10,36,23.30
2017,08,11,10,37,23.30
2017,08,11,10,38,23.40
2017,08,11,10,39,23.50
2017,08,11,10,40,23.60
2017,08,11,10,41,23.70
2017,08,11,10,42,23.80
2017,08,11,10,43,23.90
2017,08,11,10,44,24.00
2017,08,11,10,45,24.20
2017,08,11,10,46,24.20
2017,08,11,10,47,24.20
2017,08,11,10,48,24.20
2017,08,11,10,49,24.20
2017,08,11,10,50,24.20
2017,08,11,10,51,24.20
2017,08,11,10,52,24.10
2017,08,11,10,53,24.10
2017,08,11,10,54,24.10
2017,08,11,10,55,24.20
2017,08,11,10,56,24.20
2017,08,11,10,57,24.30
2017,08,11,10,58,24.40
2017,08,11,10,59,24.40
2017,08,11,11,00,24.40
2017,08,11,11,01,24.40
2017,08,11,11,02,24.40
2017,08,11,11,03,24.40
2017,08,11,11,04,24.40
2017,08,11,11,05,24.40
2017,08,11,11,06,24.50
2017,08,11,11,07,24.50
2017,08,11,11,08,24.60
2017,08,11,11,09,24.70
2017,08,11,11,10,24.80
2017,08,11,11,11,24.90
2017,08,11,11,12,25.00
2017,08,11,11,13,25.00
2017,08,11,11,14,25.00
2017,08,11,11,15,24.90
2017,08,11,11,16,24.90
2017,08,11,11,17,24.80
2017,08,11,11,18,24.80
2017,08,11,11,19,24.70
2017,08,11,11,20,24.70
2017,08,11,11,21,24.80
2017,08,11,11,22,24.80
2017,08,11,11,23,24.80
2017,08,11,11,24,24.90
2017,08,11,11,25,24.90
2017,08,11,11,26,24.90
2017,08,11,11,27,24.80
2017,08,11,11,28,24.80
2017,08,11,11,29,24.80
2017,08,11,11,30,24.80
2017,08,11,11,31,24.90
2017,08,11,11,32,24.90
2017,08,11,11,33,25.00
2017,08,11,11,34,25.00
2017,08,11,11,35,25.10
2017,08,11,11,36,25.20
2017,08,11,11,37,25.30
2017,08,11,11,38,25.40
2017,08,11,11,39,25.40
2017,08,11,11,40,25.40
2017,08,11,11,41,25.40
2017,08,11,11,42,25.40
2017,08,11,11,43,25.40
2017,08,11,11,44,25.40
2017,08,11,11,45,25.40
2017,08,11,11,46,25.40
2017,08,11,11,47,25.40
2017,08,11,11,48,25.40
2017,08,11,11,49,25.40
2017,08,11,11,50,25.30
2017,08,11,11,51,25.30
2017,08,11,11,52,25.20
2017,08,11,11,53,25.00
2017,08,11,11,54,24.90
2017,08,11,11,55,24.80
2017,08,11,11,56,24.70
2017,08,11,11,57,24.70
2017,08,11,11,58,24.60
2017,08,11,11,59,24.50
2017,08,11,12,00,24.40
2017,08,11,12,01,24.30
2017,08,11,12,02,24.20
2017,08,11,12,03,24.00
2017,08,11,12,04,23.90
2017,08,11,12,05,23.80
2017,08,11,12,06,23.80
2017,08,11,12,07,23.80
2017,08,11,12,08,23.90
2017,08,11,12,09,23.90
2017,08,11,12,10,24.00
2017,08,11,12,11,24.10
2017,08,11,12,12,24.20
2017,08,11,12,13,24.20
2017,08,11,12,14,24.20
2017,08,11,12,15,24.20
2017,08,11,12,16,24.20
2017,08,11,12,17,24.10
2017,08,11,12,18,24.10
2017,08,11,12,19,24.20
2017,08,11,12,20,24.30
2017,08,11,12,21,24.40
2017,08,11,12,22,24.40
2017,08,11,12,23,24.40
2017,08,11,12,24,24.40
2017,08,11,12,25,24.40
2017,08,11,12,26,24.50
2017,08,11,12,27,24.60
2017,08,11,12,28,24.70
2017,08,11,12,29,24.80
2017,08,11,12,30,24.90
2017,08,11,12,31,25.10
2017,08,11,12,32,25.20
2017,08,11,12,33,25.30
2017,08,11,12,34,25.50
2017,08,11,12,35,25.60
2017,08,11,12,36,25.70
2017,08,11,12,37,25.80
2017,08,11,12,38,25.80
2017,08,11,12,39,25.80
2017,08,11,12,40,25.80
2017,08,11,12,41,25.80
2017,08,11,12,42,25.80
2017,08,11,12,43,25.70
2017,08,11,12,44,25.70
2017,08,11,12,45,25.70
2017,08,11,12,46,25.60
2017,08,11,12,47,25.50
2017,08,11,12,48,25.40
2017,08,11,12,49,25.40
2017,08,11,12,50,25.30
2017,08,11,12,51,25.30
2017,08,11,12,52,25.30
2017,08,11,12,53,25.30
2017,08,11,12,54,25.30
2017,08,11,12,55,25.30
2017,08,11,12,56,25.40
2017,08,11,12,57,25.40
2017,08,11,12,58,25.50
2017,08,11,12,59,25.50
2017,08,11,13,00,25.60
2017,08,11,13,01,25.60
2017,08,11,13,02,25.70
2017,08,11,13,03,25.80
2017,08,11,13,04,25.80
2017,08,11,13,05,25.80
2017,08,11,13,06,25.80
2017,08,11,13,07,25.80
2017,08,11,13,08,25.80
2017,08,11,13,09,25.80
2017,08,11,13,10,25.80
2017,08,11,13,11,25.70
2017,08,11,13,12,25.70
2017,08,11,13,13,25.80
2017,08,11,13,14,25.80
2017,08,11,13,15,26.00
2017,08,11,13,16,26.10
2017,08,11,13,17,26.20
2017,08,11,13,18,26.20
2017,08,11,13,19,26.20
2017,08,11,13,20,26.20
2017,08,11,13,21,26.30
2017,08,11,13,22,26.30
2017,08,11,13,23,26.30
2017,08,11,13,24,26.40
2017,08,11,13,25,26.50
2017,08,11,13,26,26.50
2017,08,11,13,27,26.60
2017,08,11,13,28,26.60
2017,08,11,13,29,26.60
2017,08,11,13,30,26.70
2017,08,11,13,31,26.80
2017,08,11,13,32,26.90
2017,08,11,13,33,27.10
2017,08,11,13,34,27.20
2017,08,11,13,35,27.30
2017,08,11,13,36,27.30
2017,08,11,13,37,27.30
2017,08,11,13,38,27.30
2017,08,11,13,39,27.40
2017,08,11,13,40,27.40
2017,08,11,13,41,27.40
2017,08,11,13,42,27.40
2017,08,11,13,43,27.30
2017,08,11,13,44,27.20
2017,08,11,13,45,27.20
2017,08,11,13,46,27.30
2017,08,11,13,47,27.30
2017,08,11,13,48,27.30
2017,08,11,13,49,27.30
2017,08,11,13,50,27.30
2017,08,11,13,51,27.20
2017,08,11,13,52,27.10
2017,08,11,13,53,27.10
2017,08,11,13,54,27.10
2017,08,11,13,55,27.10
2017,08,11,13,56,27.10
2017,08,11,13,57,27.20
2017,08,11,13,58,27.20
2017,08,11,13,59,27.30
2017,08,11,14,00,27.30
2017,08,11,14,01,27.40
2017,08,11,14,02,27.50
2017,08,11,14,03,27.60
2017,08,11,14,04,27.50
2017,08,11,14,05,27.50
2017,08,11,14,06,27.40
2017,08,11,14,07,27.30
2017,08,11,14,08,27.30
2017,08,11,14,09,27.30
2017,08,11,14,10,27.20
2017,08,11,14,11,27.20
2017,08,11,14,12,27.10
2017,08,11,14,13,27.20
2017,08,11,14,14,27.20
2017,08,11,14,15,27.20
2017,08,11,14,16,27.20
2017,08,11,14,17,27.20
2017,08,11,14,18,27.20
2017,08,11,14,19,27.20
2017,08,11,14,20,27.20
2017,08,11,14,21,27.30
2017,08,11,14,22,27.40
2017,08,11,14,23,27.50
2017,08,11,14,24,27.60
2017,08,11,14,25,27.70
2017,08,11,14,26,27.70
2017,08,11,14,27,27.70
2017,08,11,14,28,27.70
2017,08,11,14,29,27.80
2017,08,11,14,30,27.80
2017,08,11,14,31,27.80
2017,08,11,14,32,27.80
2017,08,11,14,33,27.90
2017,08,11,14,34,28.00
2017,08,11,14,35,28.20
2017,08,11,14,36,28.30
2017,08,11,14,37,28.40
2017,08,11,14,38,28.50
2017,08,11,14,39,28.60
2017,08,11,14,40,28.70
2017,08,11,14,41,28.70
2017,08,11,14,42,28.80
2017,08,11,14,43,28.80
2017,08,11,14,44,28.90
2017,08,11,14,45,28.90
2017,08,11,14,46,28.80
2017,08,11,14,47,28.80
2017,08,11,14,48,28.70
2017,08,11,14,49,28.70
2017,08,11,14,50,28.70
2017,08,11,14,51,28.70
2017,08,11,14,52,28.60
2017,08,11,14,53,28.60
2017,08,11,14,54,28.60
2017,08,11,14,55,28.60
2017,08,11,14,56,28.60
2017,08,11,14,57,28.60
2017,08,11,14,58,28.50
2017,08,11,14,59,28.50
2017,08,11,15,00,28.50
2017,08,11,15,01,28.50
2017,08,11,15,02,28.60
2017,08,11,15,03,28.60
2017,08,11,15,04,28.70
2017,08,11,15,05,28.70
2017,08,11,15,06,28.80
2017,08,11,15,07,29.00
2017,08,11,15,08,29.10
2017,08,11,15,09,29.30
2017,08,11,15,10,29.50
2017,08,11,15,11,29.60
2017,08,11,15,12,29.80
2017,08,11,15,13,29.90
2017,08,11,15,14,29.90
2017,08,11,15,15,30.00
2017,08,11,15,16,30.10
2017,08,11,15,17,30.20
2017,08,11,15,18,30.10
2017,08,11,15,19,29.90
2017,08,11,15,20,29.80
2017,08,11,15,21,29.80
2017,08,11,15,22,29.70
2017,08,11,15,23,29.70
2017,08,11,15,24,29.70
2017,08,11,15,25,29.70
2017,08,11,15,26,29.70
2017,08,11,15,27,29.70
2017,08,11,15,28,29.70
2017,08,11,15,29,29.80
2017,08,11,15,30,29.80
2017,08,11,15,31,29.90
2017,08,11,15,32,30.00
2017,08,11,15,33,30.00
2017,08,11,15,34,30.00
2017,08,11,15,35,30.00
2017,08,11,15,36,29.90
2017,08,11,15,37,29.80
2017,08,11,15,38,29.70
2017,08,11,15,39,29.70
2017,08,11,15,40,29.60
2017,08,11,15,41,29.40
2017,08,11,15,42,29.30
2017,08,11,15,43,29.20
2017,08,11,15,44,29.20
2017,08,11,15,45,29.20
2017,08,11,15,46,29.10
2017,08,11,15,47,29.10
2017,08,11,15,48,29.10
2017,08,11,15,49,29.20
2017,08,11,15,50,29.20
2017,08,11,15,51,29.30
2017,08,11,15,52,29.30
2017,08,11,15,53,29.30
2017,08,11,15,54,29.40
2017,08,11,15,55,29.50
2017,08,11,15,56,29.50
2017,08,11,15,57,29.50
2017,08,11,15,58,29.40
2017,08,11,15,59,29.40
2017,08,11,16,00,29.40
2017,08,11,16,01,29.50
2017,08,11,16,02,29.60
2017,08,11,16,03,29.60
2017,08,11,16,04,29.70
2017,08,11,16,05,29.80
2017,08,11,16,06,29.80
2017,08,11,16,07,29.70
2017,08,11,16,08,29.60
2017,08,11,16,09,29.60
2017,08,11,16,10,29.50
2017,08,11,16,11,29.40
2017,08,11,16,12,29.40
2017,08,11,16,13,29.30
2017,08,11,16,14,29.30
2017,08,11,16,15,29.40
2017,08,11,16,16,29.50
2017,08,11,16,17,29.50
2017,08,11,16,18,29.60
2017,08,11,16,19,29.60
2017,08,11,16,20,29.60
2017,08,11,16,21,29.60
2017,08,11,16,22,29.60
2017,08,11,16,23,29.60
2017,08,11,16,24,29.60
2017,08,11,16,25,29.60
2017,08,11,16,26,29.50
2017,08,11,16,27,29.50
2017,08,11,16,28,29.50
2017,08,11,16,29,29.50
2017,08,11,16,30,29.40
2017,08,11,16,31,29.40
2017,08,11,16,32,29.40
2017,08,11,16,33,29.50
2017,08,11,16,34,29.50
2017,08,11,16,35,29.50
2017,08,11,16,36,29.50
2017,08,11,16,37,29.50
2017,08,11,16,38,29.50
2017,08,11,16,39,29.50
2017,08,11,16,40,29.40
2017,08,11,16,41,29.50
2017,08,11,16,42,29.60
2017,08,11,16,43,29.60
2017,08,11,16,44,29.70
2017,08,11,16,45,29.80
2017,08,11,16,46,29.90
2017,08,11,16,47,29.90
2017,08,11,16,48,29.90
2017,08,11,16,49,30.00
2017,08,11,16,50,30.00
2017,08,11,16,51,30.10
2017,08,11,16,52,30.10
2017,08,11,16,53,30.20
2017,08,11,16,54,30.20
2017,08,11,16,55,30.20
2017,08,11,16,56,30.20
2017,08,11,16,57,30.20
2017,08,11,16,58,30.20
2017,08,11,16,59,30.10
2017,08,11,17,00,30.10
2017,08,11,17,01,30.10
2017,08,11,17,02,30.10
2017,08,11,17,03,30.10
2017,08,11,17,04,30.10
2017,08,11,17,05,30.10
2017,08,11,17,06,30.10
2017,08,11,17,07,30.00
2017,08,11,17,08,29.90
2017,08,11,17,09,29.80
2017,08,11,17,10,29.70
2017,08,11,17,11,29.60
2017,08,11,17,12,29.60
2017,08,11,17,13,29.60
2017,08,11,17,14,29.50
2017,08,11,17,15,29.50
2017,08,11,17,16,29.40
2017,08,11,17,17,29.30
2017,08,11,17,18,29.00
2017,08,11,17,19,28.70